Regional Weather Roundup
Issued by NWS

Home | Current Version | Previous Version | Text Only | Print | Product List | Glossary On
Versions: 1 2 3 4 5 6 7 8 9 10 11 12 13 14 15 16 17 18 19 20 21 22 23 24 25 26 27 28 29 30 31 32 33 34 35 36 37 38 39 40 41 42 43 44 45 46 47 48 49 50
000
ASUS45 KCYS 260410
RWRWY

WYOMING REGIONAL WEATHER ROUNDUP
NATIONAL WEATHER SERVICE CHEYENNE WY
900 PM MST SAT FEB 25 2017

NOTE:  "FAIR" INDICATES FEW OR NO CLOUDS BELOW 12,000 FEET
WITH NO SIGNIFICANT WEATHER AND/OR OBSTRUCTIONS TO VISIBILITY.

WYZ001-260500-
YELLOWSTONE NATIONAL PARK

CITY           SKY/WX    TMP DP  RH WIND       PRES   REMARKS
LK YELLOWSTONE   N/A     -1  -4  87 CALM      29.75R
W YELLOWSTONE  NOT AVBL

$$
WYZ002>013-054>058-071-098>099-260500-
NORTHERN WYOMING

CITY           SKY/WX    TMP DP  RH WIND       PRES   REMARKS
JACKSON        CLOUDY    12   5  73 S13       29.83R WCI  -3
CODY           FAIR      22   1  40 W21G32    29.67  WCI   6
GREYBULL       FAIR      27   8  44 W10       29.71R WCI  17
WORLAND        FAIR      18   8  65 SW6       29.72R WCI  10
SHERIDAN       CLOUDY    20  14  77 SE14      29.70R WCI   7
BUFFALO        FAIR      20  14  77 N3        29.68R
GILLETTE       LGT SNOW  22  18  85 W8        29.69S FOG     WCI  12
HULETT         FAIR      23  18  80 SW6       29.69S WCI  16
NEWCASTLE      LGT SNOW  18  12  79 N8        29.72R WCI   7

$$
WYZ014>020-022>026-101>103-260500-
CENTRAL WYOMING

CITY           SKY/WX    TMP DP  RH WIND       PRES   REMARKS
BIG PINEY      FAIR      -7 -11  83 NW9       29.83R WCI -24
PINEDALE       FAIR      -4  -6  92 W6        29.82S WCI -16
DUBOIS         FAIR       9  -4  56 NW15      29.69R WCI  -8
LANDER         FAIR      13  -6  42 SW6       29.71R WCI   4
RIVERTON       FAIR      16   0  49 NW24G33   29.70R WCI  -2
CASPER         FAIR      12   2  64 SW14      29.72R WCI  -3
DOUGLAS        FAIR      13   4  67 N6        29.72R WCI   4

$$
WYZ021-027>030-104>119-260500-
SOUTHERN WYOMING

CITY           SKY/WX    TMP DP  RH WIND       PRES   REMARKS
EVANSTON       FAIR       7   3  84 SW10      29.87S WCI  -8
KEMMERER       FLURRIES   3   0  85 W9        29.83  WCI -11
FORT BRIDGER   FAIR      10   9  94 W16       29.88S WCI  -7
ROCK SPRINGS   FAIR      11   5  77 W22       29.83R WCI  -8
DIXON            N/A     11   6  77 SW3       29.89R
RAWLINS        FAIR      12   5  73 W29G39    29.75R WCI  -9
SARATOGA       FAIR      14   9  79 W22G28    29.77S WCI  -4
LARAMIE        MOCLDY    13   1  59 W22G28    29.69S WCI  -6
CHEYENNE       FAIR      15   2  56 W12       29.74R WCI   2
TORRINGTON     FAIR      15   5  64 W6        29.75S WCI   6
PINE BLUFFS    FAIR      12   3  67 W13       29.78S WCI  -3

$$



USA.gov is the U.S. government's official web portal to all federal, state and local government web resources and services.